| time (UTC) | temp C | wind direction | speed KPH | gust KPH | rain 1hr cm | rain 24hr cm | rain mn cm | humidity % | barometer mb |
| 20260503202029 | 26 | 227 | 4.8 | 27.4 | 0.00 | 0.00 | 0.00 | 35 | 1010.6 |
| 20260503201535 | 26 | 297 | 3.2 | 16.1 | 0.00 | 0.00 | 0.00 | 36 | 1010.7 |
| 20260503201019 | 26 | 183 | 1.6 | 9.7 | 0.00 | 0.00 | 0.00 | 37 | 1010.7 |
| 20260503200544 | 26 | 242 | 1.6 | 22.5 | 0.00 | 0.00 | 0.00 | 37 | 1010.7 |
| 20260503200028 | 26 | 189 | 3.2 | 22.5 | 0.00 | 0.00 | 0.00 | 36 | 1010.9 |
| 20260503195533 | 26 | 186 | 1.6 | 14.5 | 0.00 | 0.00 | 0.00 | 37 | 1010.9 |
| 20260503195018 | 25 | 196 | 3.2 | 19.3 | 0.00 | 0.00 | 0.00 | 37 | 1010.9 |
| 20260503194527 | 25 | 231 | 1.6 | 19.3 | 0.00 | 0.00 | 0.00 | 38 | 1011.1 |
| 20260503194033 | 25 | 192 | 0.0 | 12.9 | 0.00 | 0.00 | 0.00 | 39 | 1011.2 |
| 20260503193539 | 25 | 223 | 3.2 | 14.5 | 0.00 | 0.00 | 0.00 | 39 | 1011.3 |
| 20260503193023 | 25 | 201 | 3.2 | 14.5 | 0.00 | 0.00 | 0.00 | 39 | 1011.4 |
| 20260503192528 | 25 | 217 | 1.6 | 14.5 | 0.00 | 0.00 | 0.00 | 39 | 1011.6 |
| 20260503192053 | 25 | 214 | 3.2 | 16.1 | 0.00 | 0.00 | 0.00 | 39 | 1011.5 |
| 20260503191518 | 25 | 207 | 3.2 | 16.1 | 0.00 | 0.00 | 0.00 | 38 | 1011.6 |
| 20260503191043 | 25 | 185 | 3.2 | 17.7 | 0.00 | 0.00 | 0.00 | 39 | 1011.7 |
| 20260503190527 | 25 | 201 | 3.2 | 19.3 | 0.00 | 0.00 | 0.00 | 38 | 1011.8 |
| 20260503190030 | 25 | 263 | 1.6 | 19.3 | 0.00 | 0.00 | 0.00 | 40 | 1011.9 |
| 20260503185533 | 24 | 182 | 1.6 | 16.1 | 0.00 | 0.00 | 0.00 | 40 | 1011.9 |
| 20260503185057 | 24 | 182 | 4.8 | 16.1 | 0.00 | 0.00 | 0.00 | 40 | 1012.0 |
| 20260503184521 | 24 | 232 | 3.2 | 16.1 | 0.00 | 0.00 | 0.00 | 42 | 1012.1 |
| 20260503184026 | 24 | 254 | 3.2 | 20.9 | 0.00 | 0.00 | 0.00 | 41 | 1012.2 |
| 20260503183553 | 23 | 277 | 3.2 | 20.9 | 0.00 | 0.00 | 0.00 | 42 | 1012.2 |
| 20260503183021 | 23 | 215 | 0.0 | 19.3 | 0.00 | 0.00 | 0.00 | 42 | 1012.2 |
| 20260503182526 | 23 | 192 | 3.2 | 19.3 | 0.00 | 0.00 | 0.00 | 42 | 1012.3 |
| 20260503182030 | 23 | 179 | 1.6 | 16.1 | 0.00 | 0.00 | 0.00 | 44 | 1012.5 |
| 20260503181535 | 23 | 217 | 3.2 | 16.1 | 0.00 | 0.00 | 0.00 | 42 | 1012.5 |
| 20260503181020 | 23 | 215 | 3.2 | 14.5 | 0.00 | 0.00 | 0.00 | 43 | 1012.7 |
| 20260503180527 | 23 | 183 | 1.6 | 17.7 | 0.00 | 0.00 | 0.00 | 43 | 1012.8 |
| 20260503180031 | 23 | 247 | 3.2 | 17.7 | 0.00 | 0.00 | 0.00 | 44 | 1012.9 |
| 20260503175536 | 23 | 234 | 0.0 | 16.1 | 0.00 | 0.00 | 0.00 | 45 | 1013.0 |
| 20260503175041 | 22 | 207 | 3.2 | 24.1 | 0.00 | 0.00 | 0.00 | 44 | 1013.1 |
| 20260503174524 | 22 | 208 | 1.6 | 14.5 | 0.00 | 0.00 | 0.00 | 44 | 1013.3 |
| 20260503174030 | 22 | 276 | 1.6 | 14.5 | 0.00 | 0.00 | 0.00 | 46 | 1013.4 |
| 20260503173519 | 22 | 213 | 3.2 | 17.7 | 0.00 | 0.00 | 0.00 | 46 | 1013.4 |
| 20260503173045 | 22 | 236 | 3.2 | 17.7 | 0.00 | 0.00 | 0.00 | 46 | 1013.4 |
| 20260503172529 | 22 | 176 | 1.6 | 14.5 | 0.00 | 0.00 | 0.00 | 47 | 1013.5 |
| 20260503172035 | 22 | 196 | 1.6 | 14.5 | 0.00 | 0.00 | 0.00 | 47 | 1013.7 |
| 20260503171521 | 22 | 220 | 1.6 | 9.7 | 0.00 | 0.00 | 0.00 | 47 | 1013.7 |
| 20260503171025 | 22 | 206 | 0.0 | 12.9 | 0.00 | 0.00 | 0.00 | 48 | 1013.8 |
| 20260503170531 | 21 | 197 | 1.6 | 12.9 | 0.00 | 0.00 | 0.00 | 47 | 1013.8 |
| 20260503150528 | 17 | 147 | 0.0 | 8.0 | 0.00 | 0.00 | 0.00 | 49 | 1015.3 |
| 20260503131029 | 11 | 188 | 0.0 | 1.6 | 0.00 | 0.00 | 0.00 | 62 | 1016.1 |
| 20260503130534 | 11 | 174 | 0.0 | 1.6 | 0.00 | 0.00 | 0.00 | 63 | 1016.1 |
| 20260503110523 | 8 | 180 | 0.0 | 0.0 | 0.00 | 0.00 | 0.00 | 71 | 1016.1 |
| 20260503081519 | 7 | 132 | 0.0 | 0.0 | 0.00 | 0.00 | 0.00 | 73 | 1016.7 |
| 20260503081024 | 7 | 87 | 0.0 | 0.0 | 0.00 | 0.00 | 0.00 | 76 | 1016.8 |
| 20260503080529 | 6 | 42 | 0.0 | 0.0 | 0.00 | 0.00 | 0.00 | 77 | 1016.9 |
| 20260503072547 | 6 | 42 | 0.0 | 0.0 | 0.00 | 0.00 | 0.00 | 81 | 1017.1 |
| 20260503072030 | 6 | 42 | 0.0 | 0.0 | 0.00 | 0.00 | 0.00 | 82 | 1017.1 |
| 20260503071519 | 6 | 42 | 0.0 | 0.0 | 0.00 | 0.00 | 0.00 | 82 | 1017.1 |
| 20260503071044 | 6 | 42 | 0.0 | 0.0 | 0.00 | 0.00 | 0.00 | 81 | 1017.1 |
| 20260503070528 | 6 | 42 | 0.0 | 0.0 | 0.00 | 0.00 | 0.00 | 81 | 1017.2 |
| 20260503055023 | 7 | 42 | 0.0 | 0.0 | 0.00 | 0.00 | 0.00 | 79 | 1017.6 |
| 20260503054528 | 7 | 42 | 0.0 | 0.0 | 0.00 | 0.00 | 0.00 | 79 | 1017.6 |
| 20260503054053 | 7 | 42 | 0.0 | 0.0 | 0.00 | 0.00 | 0.00 | 79 | 1017.6 |
| 20260503053537 | 7 | 42 | 0.0 | 0.0 | 0.00 | 0.00 | 0.00 | 79 | 1017.6 |
| 20260503053024 | 7 | 42 | 0.0 | 0.0 | 0.00 | 0.00 | 0.00 | 79 | 1017.6 |
| 20260503052528 | 8 | 42 | 0.0 | 0.0 | 0.00 | 0.00 | 0.00 | 79 | 1017.7 |
| 20260503052055 | 8 | 42 | 0.0 | 0.0 | 0.00 | 0.00 | 0.00 | 79 | 1017.7 |
| 20260503051521 | 8 | 42 | 0.0 | 0.0 | 0.00 | 0.00 | 0.00 | 79 | 1017.7 |
| 20260503051026 | 8 | 42 | 0.0 | 0.0 | 0.00 | 0.00 | 0.00 | 79 | 1017.7 |
| 20260503050532 | 8 | 42 | 0.0 | 0.0 | 0.00 | 0.00 | 0.00 | 78 | 1017.7 |
| 20260503050038 | 8 | 42 | 0.0 | 0.0 | 0.00 | 0.00 | 0.00 | 77 | 1017.7 |
| 20260503045523 | 8 | 42 | 0.0 | 0.0 | 0.00 | 0.00 | 0.00 | 76 | 1017.8 |
| 20260503045029 | 8 | 42 | 0.0 | 0.0 | 0.00 | 0.00 | 0.00 | 76 | 1017.7 |
| 20260503044554 | 8 | 42 | 0.0 | 0.0 | 0.00 | 0.00 | 0.00 | 75 | 1017.7 |
| 20260503044038 | 8 | 42 | 0.0 | 0.0 | 0.00 | 0.00 | 0.00 | 76 | 1017.7 |
| 20260503043524 | 8 | 42 | 0.0 | 0.0 | 0.00 | 0.00 | 0.00 | 76 | 1017.7 |
| 20260503043029 | 8 | 42 | 0.0 | 0.0 | 0.00 | 0.00 | 0.00 | 76 | 1017.6 |
| 20260503042534 | 8 | 42 | 0.0 | 0.0 | 0.00 | 0.00 | 0.00 | 75 | 1017.7 |
| 20260503042023 | 8 | 42 | 0.0 | 0.0 | 0.00 | 0.00 | 0.00 | 74 | 1017.7 |
| 20260503041528 | 8 | 42 | 0.0 | 0.0 | 0.00 | 0.00 | 0.00 | 74 | 1017.7 |
| 20260503041053 | 8 | 42 | 0.0 | 0.0 | 0.00 | 0.00 | 0.00 | 74 | 1017.7 |
| 20260503040537 | 9 | 42 | 0.0 | 0.0 | 0.00 | 0.00 | 0.00 | 75 | 1017.8 |
| 20260503040021 | 8 | 42 | 0.0 | 0.0 | 0.00 | 0.00 | 0.00 | 74 | 1017.8 |
| 20260503035526 | 8 | 36 | 0.0 | 0.0 | 0.00 | 0.00 | 0.00 | 73 | 1017.7 |
| 20260503035032 | 8 | 36 | 0.0 | 0.0 | 0.00 | 0.00 | 0.00 | 73 | 1017.8 |
| 20260503034537 | 9 | 36 | 0.0 | 0.0 | 0.00 | 0.00 | 0.00 | 73 | 1017.9 |
| 20260503034022 | 9 | 36 | 0.0 | 0.0 | 0.00 | 0.00 | 0.00 | 73 | 1017.9 |
| 20260503033527 | 9 | 36 | 0.0 | 0.0 | 0.00 | 0.00 | 0.00 | 72 | 1017.9 |
| 20260503033032 | 9 | 36 | 0.0 | 0.0 | 0.00 | 0.00 | 0.00 | 72 | 1017.9 |
| 20260503032557 | 9 | 36 | 0.0 | 0.0 | 0.00 | 0.00 | 0.00 | 72 | 1017.9 |
| 20260503032026 | 10 | 36 | 0.0 | 0.0 | 0.00 | 0.00 | 0.00 | 72 | 1017.9 |
| 20260503031531 | 10 | 36 | 0.0 | 0.0 | 0.00 | 0.00 | 0.00 | 71 | 1017.9 |
| 20260503031036 | 10 | 36 | 0.0 | 0.0 | 0.00 | 0.00 | 0.00 | 71 | 1017.9 |
| 20260503030521 | 10 | 36 | 0.0 | 0.0 | 0.00 | 0.00 | 0.00 | 69 | 1017.9 |
| 20260503030025 | 10 | 36 | 0.0 | 0.0 | 0.00 | 0.00 | 0.00 | 69 | 1017.9 |
| 20260503025531 | 10 | 36 | 0.0 | 0.0 | 0.00 | 0.00 | 0.00 | 68 | 1017.9 |
| 20260503025037 | 10 | 36 | 0.0 | 0.0 | 0.00 | 0.00 | 0.00 | 67 | 1017.9 |
| 20260503024521 | 10 | 36 | 0.0 | 0.0 | 0.00 | 0.00 | 0.00 | 66 | 1017.9 |
| 20260503024047 | 10 | 36 | 0.0 | 0.0 | 0.00 | 0.00 | 0.00 | 65 | 1017.8 |
| 20260503023551 | 10 | 36 | 0.0 | 0.0 | 0.00 | 0.00 | 0.00 | 64 | 1017.8 |
| 20260503023035 | 11 | 36 | 0.0 | 0.0 | 0.00 | 0.00 | 0.00 | 63 | 1017.7 |
| 20260503022524 | 11 | 36 | 0.0 | 0.0 | 0.00 | 0.00 | 0.00 | 61 | 1017.7 |
| 20260503022049 | 11 | 36 | 0.0 | 0.0 | 0.00 | 0.00 | 0.00 | 60 | 1017.7 |
| 20260503021532 | 11 | 36 | 0.0 | 0.0 | 0.00 | 0.00 | 0.00 | 59 | 1017.6 |
| 20260503021057 | 11 | 36 | 0.0 | 0.0 | 0.00 | 0.00 | 0.00 | 58 | 1017.6 |
| 20260503020541 | 11 | 36 | 0.0 | 0.0 | 0.00 | 0.00 | 0.00 | 58 | 1017.6 |
| 20260503020046 | 12 | 36 | 0.0 | 0.0 | 0.00 | 0.00 | 0.00 | 57 | 1017.5 |
| 20260503015529 | 12 | 36 | 0.0 | 0.0 | 0.00 | 0.00 | 0.00 | 56 | 1017.5 |
| 20260503015035 | 12 | 36 | 0.0 | 0.0 | 0.00 | 0.00 | 0.00 | 55 | 1017.5 |
| 20260503014539 | 12 | 36 | 0.0 | 0.0 | 0.00 | 0.00 | 0.00 | 54 | 1017.4 |
| 20260503014025 | 12 | 36 | 0.0 | 0.0 | 0.00 | 0.00 | 0.00 | 52 | 1017.3 |
| 20260503013531 | 13 | 36 | 0.0 | 0.0 | 0.00 | 0.00 | 0.00 | 52 | 1017.3 |
| 20260503013037 | 13 | 36 | 0.0 | 0.0 | 0.00 | 0.00 | 0.00 | 51 | 1017.3 |
| 20260503012522 | 13 | 36 | 0.0 | 0.0 | 0.00 | 0.00 | 0.00 | 50 | 1017.2 |
| 20260503012032 | 13 | 36 | 0.0 | 0.0 | 0.00 | 0.00 | 0.00 | 48 | 1017.2 |
| 20260503011537 | 14 | 36 | 0.0 | 0.0 | 0.00 | 0.00 | 0.00 | 48 | 1017.2 |
| 20260503011022 | 14 | 36 | 0.0 | 0.0 | 0.00 | 0.00 | 0.00 | 47 | 1017.2 |
| 20260503010528 | 15 | 36 | 0.0 | 0.0 | 0.00 | 0.00 | 0.00 | 45 | 1017.2 |
| 20260503010035 | 15 | 36 | 0.0 | 0.0 | 0.00 | 0.00 | 0.00 | 44 | 1017.1 |
| 20260503005539 | 15 | 36 | 0.0 | 0.0 | 0.00 | 0.00 | 0.00 | 43 | 1017.1 |
| 20260503005024 | 15 | 36 | 0.0 | 0.0 | 0.00 | 0.00 | 0.00 | 43 | 1017.2 |
| 20260503004550 | 15 | 36 | 0.0 | 0.0 | 0.00 | 0.00 | 0.00 | 42 | 1017.2 |
| 20260503004033 | 15 | 31 | 0.0 | 0.0 | 0.00 | 0.00 | 0.00 | 41 | 1017.2 |
| 20260503003538 | 16 | 16 | 0.0 | 0.0 | 0.00 | 0.00 | 0.00 | 41 | 1017.2 |
| 20260503003024 | 16 | 5 | 0.0 | 0.0 | 0.00 | 0.00 | 0.00 | 41 | 1017.1 |
| 20260503002533 | 16 | 49 | 0.0 | 0.0 | 0.00 | 0.00 | 0.00 | 40 | 1017.1 |
| 20260503002038 | 16 | 324 | 0.0 | 0.0 | 0.00 | 0.00 | 0.00 | 40 | 1017.1 |
| 20260503001543 | 16 | 41 | 0.0 | 0.0 | 0.00 | 0.00 | 0.00 | 38 | 1017.0 |
| 20260503001029 | 16 | 313 | 0.0 | 0.0 | 0.00 | 0.00 | 0.00 | 37 | 1017.0 |
| 20260503000534 | 17 | 52 | 0.0 | 0.0 | 0.00 | 0.00 | 0.00 | 37 | 1017.1 |
| 20260503000040 | 17 | 350 | 0.0 | 0.0 | 0.00 | 0.00 | 0.00 | 36 | 1017.1 |
| 20260502235525 | 17 | 305 | 0.0 | 0.0 | 0.00 | 0.00 | 0.00 | 35 | 1017.1 |
| 20260502235030 | 17 | 294 | 0.0 | 0.0 | 0.00 | 0.00 | 0.00 | 35 | 1017.1 |
| 20260502234535 | 18 | 11 | 0.0 | 0.0 | 0.00 | 0.00 | 0.00 | 36 | 1017.0 |
| 20260502234040 | 18 | 229 | 0.0 | 0.0 | 0.00 | 0.00 | 0.00 | 35 | 1017.0 |
| 20260502233524 | 18 | 236 | 0.0 | 0.0 | 0.00 | 0.00 | 0.00 | 35 | 1017.1 |
| 20260502233034 | 18 | 265 | 0.0 | 1.6 | 0.00 | 0.00 | 0.00 | 36 | 1017.1 |
| 20260502232540 | 18 | 49 | 0.0 | 1.6 | 0.00 | 0.00 | 0.00 | 35 | 1017.1 |
| 20260502232044 | 18 | 49 | 0.0 | 0.0 | 0.00 | 0.00 | 0.00 | 35 | 1017.1 |
| 20260502231548 | 18 | 49 | 0.0 | 0.0 | 0.00 | 0.00 | 0.00 | 34 | 1017.1 |
| 20260502231032 | 18 | 27 | 0.0 | 0.0 | 0.00 | 0.00 | 0.00 | 33 | 1017.2 |
| 20260502230537 | 18 | 332 | 0.0 | 0.0 | 0.00 | 0.00 | 0.00 | 34 | 1017.2 |
| 20260502230023 | 18 | 236 | 0.0 | 0.0 | 0.00 | 0.00 | 0.00 | 33 | 1017.1 |
| 20260502225528 | 18 | 238 | 0.0 | 0.0 | 0.00 | 0.00 | 0.00 | 33 | 1017.2 |
| 20260502225033 | 18 | 212 | 0.0 | 0.0 | 0.00 | 0.00 | 0.00 | 33 | 1017.2 |
| 20260502224539 | 18 | 28 | 0.0 | 0.0 | 0.00 | 0.00 | 0.00 | 34 | 1017.3 |
| 20260502224024 | 18 | 96 | 0.0 | 0.0 | 0.00 | 0.00 | 0.00 | 32 | 1017.2 |
| 20260502223528 | 18 | 314 | 0.0 | 0.0 | 0.00 | 0.00 | 0.00 | 33 | 1017.4 |
| 20260502223038 | 19 | 63 | 0.0 | 0.0 | 0.00 | 0.00 | 0.00 | 33 | 1017.3 |
| 20260502222521 | 19 | 235 | 0.0 | 0.0 | 0.00 | 0.00 | 0.00 | 33 | 1017.2 |
| 20260502222026 | 18 | 204 | 0.0 | 1.6 | 0.00 | 0.00 | 0.00 | 34 | 1017.3 |
| 20260502221532 | 18 | 34 | 0.0 | 1.6 | 0.00 | 0.00 | 0.00 | 34 | 1017.3 |
| 20260502221058 | 18 | 251 | 0.0 | 1.6 | 0.00 | 0.00 | 0.00 | 32 | 1017.2 |
| 20260502220521 | 19 | 282 | 0.0 | 0.0 | 0.00 | 0.00 | 0.00 | 32 | 1017.2 |
| 20260502220026 | 19 | 221 | 0.0 | 1.6 | 0.00 | 0.00 | 0.00 | 32 | 1017.3 |
| 20260502215531 | 19 | 238 | 0.0 | 0.0 | 0.00 | 0.00 | 0.00 | 33 | 1017.3 |
| 20260502215035 | 20 | 86 | 0.0 | 0.0 | 0.00 | 0.00 | 0.00 | 33 | 1017.2 |
| 20260502214540 | 19 | 30 | 0.0 | 0.0 | 0.00 | 0.00 | 0.00 | 34 | 1017.2 |
| 20260502214025 | 19 | 104 | 0.0 | 1.6 | 0.00 | 0.00 | 0.00 | 33 | 1017.2 |
| 20260502213530 | 19 | 55 | 0.0 | 6.4 | 0.00 | 0.00 | 0.00 | 34 | 1017.3 |
| 20260502213055 | 19 | 260 | 0.0 | 6.4 | 0.00 | 0.00 | 0.00 | 33 | 1017.3 |
| 20260502212522 | 19 | 260 | 0.0 | 0.0 | 0.00 | 0.00 | 0.00 | 33 | 1017.2 |
| 20260502212047 | 19 | 201 | 0.0 | 0.0 | 0.00 | 0.00 | 0.00 | 32 | 1017.3 |
| 20260502211532 | 18 | 284 | 0.0 | 1.6 | 0.00 | 0.00 | 0.00 | 34 | 1017.4 |
| 20260502211037 | 19 | 266 | 0.0 | 1.6 | 0.00 | 0.00 | 0.00 | 33 | 1017.4 |
| 20260502210522 | 18 | 15 | 0.0 | 0.0 | 0.00 | 0.00 | 0.00 | 33 | 1017.4 |
| 20260502210026 | 18 | 205 | 0.0 | 1.6 | 0.00 | 0.00 | 0.00 | 35 | 1017.5 |
| 20260502205532 | 19 | 65 | 0.0 | 0.0 | 0.00 | 0.00 | 0.00 | 32 | 1017.5 |
| 20260502205036 | 20 | 105 | 0.0 | 0.0 | 0.00 | 0.00 | 0.00 | 31 | 1017.6 |
| 20260502204521 | 19 | 309 | 0.0 | 0.0 | 0.00 | 0.00 | 0.00 | 33 | 1017.6 |
| 20260502204025 | 19 | 349 | 0.0 | 0.0 | 0.00 | 0.00 | 0.00 | 33 | 1017.6 |
| 20260502203551 | 19 | 21 | 0.0 | 1.6 | 0.00 | 0.00 | 0.00 | 33 | 1017.7 |
| 20260502203034 | 18 | 269 | 0.0 | 1.6 | 0.00 | 0.00 | 0.00 | 34 | 1017.7 |
| 20260502202543 | 19 | 224 | 0.0 | 3.2 | 0.00 | 0.00 | 0.00 | 33 | 1017.8 |